Airport Information

KYKM - Yakima Air Terminal McAllister Field Airport

KYKM 251853Z 29015G20KT 10SM FEW070 23/03 A2997 RMK AO2 PK WND 28026/1836 SLP142 T02280033


  • General Information

  • Coordinates: N 46°34'5"/ W 120°32'38"
  • Location: N/A
  • Surveyed Elevation: 1095 MSL

Operations

Flow Name Active Runways Conditions

Green background denotes normal operations.


Common Frequencies

Callsign Frequency Position Name

More at the Document Center


Charts

Under Construction